Location: Hamayl? Da??
(36.7028°N, 30.1716°E)
Time: 11:36:11
(UTC+00:00)

Cosmos 1812 Rocket - Pass Details

Date: 04 August 2024
Orbit: 601 x 628 km, 82.5° (Epoch: 12 September)

Event Time Altitude Azimuth Distance (km) Brightness Sun altitude
Rises 19:31:29 0° 356° (N) 2,919 7.8 -25.2°
Reaches altitude 10° 19:33:45 10° 359° (N) 2,005 6.8 -25.5°
Enters shadow 19:37:14 51° 25° (NNE) 791 4.1 -26.0°
